TimeEDT,TemperatureF,Dew PointF,Humidity,Sea Level PressureIn,VisibilityMPH,Wind Direction,Wind SpeedMPH,Gust SpeedMPH,PrecipitationIn,Events,Conditions,WindDirDegrees,DateUTC
12:35 AM,51.8,51.8,100,30.14,2.5,Calm,Calm,-,N/A,,Overcast,0,2013-10-07 04:35:00
12:42 AM,51.8,51.8,100,30.13,3.0,Calm,Calm,-,N/A,,Overcast,0,2013-10-07 04:42:00
12:50 AM,51.8,51.8,100,30.13,2.5,Calm,Calm,-,0.01,,Overcast,0,2013-10-07 04:50:00
12:52 AM,53.1,51.1,93,30.16,2.5,Calm,Calm,-,0.01,,Overcast,0,2013-10-07 04:52:00
1:04 AM,53.6,51.8,94,30.13,3.0,Calm,Calm,-,N/A,,Overcast,0,2013-10-07 05:04:00
1:20 AM,53.6,51.8,94,30.13,2.5,Calm,Calm,-,0.00,Rain,Light Rain,0,2013-10-07 05:20:00
1:31 AM,53.6,51.8,94,30.12,3.0,NNE,3.5,-,0.00,Rain,Light Rain,30,2013-10-07 05:31:00
1:52 AM,53.1,51.1,93,30.14,4.0,NNE,3.5,-,0.01,Rain,Light Rain,20,2013-10-07 05:52:00
2:29 AM,51.8,51.8,100,30.10,8.0,Calm,Calm,-,0.00,,Overcast,0,2013-10-07 06:29:00
2:52 AM,52.0,51.1,97,30.12,10.0,Calm,Calm,-,0.00,,Overcast,0,2013-10-07 06:52:00
3:52 AM,52.0,51.1,97,30.10,2.0,Calm,Calm,-,N/A,,Overcast,0,2013-10-07 07:52:00
4:02 AM,51.8,51.8,100,30.08,1.8,Calm,Calm,-,N/A,,Overcast,0,2013-10-07 08:02:00
4:29 AM,51.8,51.8,100,30.07,1.2,Calm,Calm,-,N/A,,Overcast,0,2013-10-07 08:29:00
4:39 AM,53.6,51.8,94,30.07,1.0,Calm,Calm,-,N/A,,Mist,0,2013-10-07 08:39:00
4:52 AM,52.0,52.0,100,30.09,0.8,Calm,Calm,-,N/A,,Mist,0,2013-10-07 08:52:00
5:52 AM,52.0,52.0,100,30.08,0.8,Calm,Calm,-,N/A,,Mist,0,2013-10-07 09:52:00
6:14 AM,53.6,51.8,94,30.05,1.0,Calm,Calm,-,N/A,,Mist,0,2013-10-07 10:14:00
6:26 AM,53.6,51.8,94,30.05,0.8,Calm,Calm,-,N/A,,Mist,0,2013-10-07 10:26:00
6:44 AM,53.6,51.8,94,30.05,1.0,Calm,Calm,-,N/A,,Mist,0,2013-10-07 10:44:00
6:52 AM,53.1,52.0,96,30.07,1.0,Calm,Calm,-,N/A,,Mist,0,2013-10-07 10:52:00
7:08 AM,53.6,51.8,94,30.04,0.5,Calm,Calm,-,N/A,Fog,Fog,0,2013-10-07 11:08:00
7:52 AM,53.1,52.0,96,30.06,0.5,Calm,Calm,-,N/A,Fog,Fog,0,2013-10-07 11:52:00
8:52 AM,54.0,53.1,97,30.05,0.8,Calm,Calm,-,N/A,,Mist,0,2013-10-07 12:52:00
9:07 AM,53.6,53.6,100,30.02,1.0,Calm,Calm,-,N/A,,Mist,0,2013-10-07 13:07:00
9:21 AM,53.6,53.6,100,30.01,1.5,Calm,Calm,-,N/A,,Overcast,0,2013-10-07 13:21:00
9:35 AM,55.4,55.4,100,30.01,2.0,Calm,Calm,-,N/A,,Overcast,0,2013-10-07 13:35:00
9:52 AM,60.1,59.0,96,30.01,2.5,SSE,4.6,-,N/A,,Overcast,160,2013-10-07 13:52:00
10:00 AM,60.8,60.8,100,29.99,4.0,SSE,6.9,-,N/A,,Overcast,160,2013-10-07 14:00:00
10:52 AM,63.0,61.0,93,29.99,10.0,SSE,9.2,17.3,0.01,,Overcast,160,2013-10-07 14:52:00
11:27 AM,64.4,62.6,94,29.95,10.0,South,9.2,17.3,N/A,,Overcast,170,2013-10-07 15:27:00
11:52 AM,66.0,63.0,90,29.96,10.0,SSE,9.2,-,N/A,,Overcast,160,2013-10-07 15:52:00
12:08 PM,66.2,62.6,88,29.93,10.0,South,11.5,-,N/A,,Overcast,170,2013-10-07 16:08:00
12:52 PM,69.1,64.0,84,29.91,10.0,SSE,8.1,-,N/A,,Overcast,160,2013-10-07 16:52:00
1:38 PM,71.6,64.4,78,29.85,10.0,South,16.1,28.8,N/A,,Overcast,170,2013-10-07 17:38:00
1:52 PM,72.0,63.0,73,29.85,10.0,South,16.1,29.9,N/A,,Mostly Cloudy,180,2013-10-07 17:52:00
2:12 PM,73.4,62.6,69,29.83,10.0,South,19.6,26.5,N/A,,Overcast,170,2013-10-07 18:12:00
2:40 PM,71.6,62.6,73,29.83,9.0,South,15.0,31.1,0.00,,Overcast,180,2013-10-07 18:40:00
2:52 PM,73.0,63.0,71,29.83,10.0,South,18.4,24.2,0.00,,Mostly Cloudy,180,2013-10-07 18:52:00
3:29 PM,71.6,62.6,73,29.81,10.0,South,15.0,24.2,N/A,,Overcast,190,2013-10-07 19:29:00
3:52 PM,70.0,64.0,81,29.82,10.0,South,16.1,29.9,0.00,Rain,Light Rain,180,2013-10-07 19:52:00
4:52 PM,71.1,63.0,75,29.79,10.0,South,16.1,33.4,0.00,,Overcast,180,2013-10-07 20:52:00
5:15 PM,69.8,64.4,83,29.80,2.5,South,20.7,36.8,0.03,Rain,Rain,180,2013-10-07 21:15:00
5:25 PM,68.0,64.4,88,29.79,1.8,South,18.4,31.1,0.08,Rain,Rain,170,2013-10-07 21:25:00
5:32 PM,68.0,64.4,88,29.79,3.0,South,20.7,33.4,0.09,Rain,Light Rain,180,2013-10-07 21:32:00
5:52 PM,68.0,64.0,87,29.81,10.0,South,15.0,29.9,0.10,Rain,Light Rain,180,2013-10-07 21:52:00
6:03 PM,66.2,64.4,94,29.84,1.8,SW,19.6,31.1,0.17,Rain,Heavy Rain,220,2013-10-07 22:03:00
6:05 PM,64.4,62.6,94,29.83,1.0,SSW,20.7,31.1,0.23,Rain,Heavy Rain,200,2013-10-07 22:05:00
6:15 PM,64.4,62.6,94,29.82,1.5,SSW,13.8,23.0,0.34,Rain,Heavy Rain,210,2013-10-07 22:15:00
6:38 PM,62.6,60.8,94,29.82,3.0,SSW,10.4,21.9,0.62,Rain,Heavy Rain,210,2013-10-07 22:38:00
6:52 PM,64.0,61.0,90,29.84,7.0,SSW,8.1,-,0.63,Rain,Light Rain,210,2013-10-07 22:52:00
7:08 PM,64.4,62.6,94,29.83,4.0,South,8.1,16.1,0.06,Rain,Rain,190,2013-10-07 23:08:00
7:30 PM,64.4,62.6,94,29.83,5.0,SSW,8.1,-,0.10,Rain,Light Rain,200,2013-10-07 23:30:00
7:37 PM,64.4,62.6,94,29.83,10.0,SSW,9.2,-,0.10,Rain,Light Rain,200,2013-10-07 23:37:00
7:47 PM,64.4,62.6,94,29.85,10.0,SSW,8.1,-,0.10,,Overcast,210,2013-10-07 23:47:00
7:50 PM,64.4,60.8,88,29.85,10.0,WSW,8.1,-,0.10,,Overcast,240,2013-10-07 23:50:00
7:52 PM,64.0,61.0,90,29.87,10.0,West,10.4,18.4,0.10,,Overcast,280,2013-10-07 23:52:00
8:50 PM,57.2,53.6,88,29.88,10.0,WSW,5.8,-,0.02,,Overcast,240,2013-10-08 00:50:00
8:52 PM,57.9,53.1,84,29.90,10.0,WSW,5.8,-,0.02,,Overcast,240,2013-10-08 00:52:00
9:52 PM,55.9,53.1,90,29.92,10.0,Calm,Calm,-,0.00,,Overcast,0,2013-10-08 01:52:00
10:52 PM,55.9,53.1,90,29.94,10.0,Calm,Calm,-,N/A,,Overcast,0,2013-10-08 02:52:00
11:52 PM,53.1,52.0,96,29.94,10.0,Calm,Calm,-,N/A,,Clear,0,2013-10-08 03:52:00